{"data":{"norad_id":48357,"intl_designator":"2021-038E","name":"STARLINK-2636","alt_names":[],"object_type":"PAYLOAD","status":"ACTIVE","operator":null,"country":"US","launch_date":"2021-05-04","launch_site_code":"AFETR","launch_vehicle":null,"mission":null,"orbit_class":"UNKNOWN","rcs_meters":null,"size_class":null,"mass_kg":null,"dimensions":null,"purposes":["comms"],"wikipedia_slug":null,"has_3d_model":false,"image_url":null,"decayed_at":null,"tle_current":{"epoch":"2026-09-19T01:36:57.686976Z","epoch_age_seconds":157518,"freshness":"FRESH","line1":"1 48357U 21038E   26262.06733434  .00001100  00000+0  47204-4 0  9991","line2":"2 48357  53.1602 178.2239 0001079  94.7633 265.3492 15.31700045296719","mean_motion":15.31700045,"eccentricity":0.0001079,"inclination_deg":53.1602,"raan_deg":178.2239,"arg_perigee_deg":94.7633,"mean_anomaly_deg":265.3492,"bstar":4.7204e-5,"rev_number":29671,"period_min":94.013185199064,"perigee_km":470.00086726968,"apogee_km":471.4788548963,"semimajor_km":6848.876861083,"source":"CELESTRAK","updated_at":"2026-09-20T09:00:38.939408Z"}}}